TimePST,TemperatureF,Dew PointF,Humidity,Sea Level PressureIn,VisibilityMPH,Wind Direction,Wind SpeedMPH,Gust SpeedMPH,PrecipitationIn,Events,Conditions,WindDirDegrees,DateUTC
12:56 AM,27.0,19.0,72,29.78,10.0,East,8.1,-,N/A,,Overcast,80,2013-02-19 08:56:00
2:56 AM,27.0,19.0,72,29.74,10.0,ESE,4.6,-,N/A,,Mostly Cloudy,110,2013-02-19 10:56:00
4:56 AM,26.1,19.9,78,29.75,10.0,Calm,Calm,-,N/A,,Scattered Clouds,0,2013-02-19 12:56:00
5:56 AM,25.0,19.9,81,29.74,10.0,NW,3.5,-,N/A,,Mostly Cloudy,320,2013-02-19 13:56:00
7:56 AM,28.0,19.9,72,29.75,10.0,ENE,6.9,-,N/A,,Scattered Clouds,70,2013-02-19 15:56:00
8:56 AM,32.0,21.9,66,29.72,10.0,East,3.5,-,N/A,,Mostly Cloudy,100,2013-02-19 16:56:00
9:56 AM,39.0,21.9,50,29.66,10.0,ENE,4.6,-,N/A,,Clear,70,2013-02-19 17:56:00
10:56 AM,43.0,21.0,42,29.64,10.0,Calm,Calm,-,N/A,,Partly Cloudy,0,2013-02-19 18:56:00
11:56 AM,45.0,19.0,36,29.59,10.0,Calm,Calm,-,N/A,,Clear,0,2013-02-19 19:56:00
12:56 PM,-9999,-9999,N/A,29.55,-9999.0,North,-9999.0,-,N/A,,Unknown,0,2013-02-19 20:56:00
1:56 PM,43.0,21.0,42,29.55,-9999.0,SSW,4.6,-,N/A,,Mostly Cloudy,200,2013-02-19 21:56:00
2:56 PM,41.0,25.0,53,29.55,10.0,ESE,6.9,-,N/A,,Overcast,110,2013-02-19 22:56:00
4:26 PM,33.8,28.4,81,29.55,2.0,WSW,8.1,-,0.00,Snow,Light Snow,240,2013-02-20 00:26:00
4:32 PM,33.8,30.2,87,29.55,1.8,WSW,8.1,-,0.00,Snow,Light Snow,250,2013-02-20 00:32:00
4:42 PM,33.8,30.2,87,29.54,1.5,SW,8.1,-,0.00,Snow,Light Snow,230,2013-02-20 00:42:00
4:56 PM,33.1,30.0,89,29.59,1.8,WNW,5.8,-,0.00,Snow,Light Snow,290,2013-02-20 00:56:00
5:20 PM,33.8,28.4,81,29.54,1.0,NNW,5.8,-,0.01,Snow,Light Snow,330,2013-02-20 01:20:00
5:44 PM,33.8,30.2,87,29.55,1.8,NE,4.6,-,0.02,Snow,Light Snow,40,2013-02-20 01:44:00
5:46 PM,33.8,30.2,87,29.55,2.0,Variable,3.5,-,0.02,Snow,Light Snow,0,2013-02-20 01:46:00
5:56 PM,33.1,30.0,89,29.60,6.0,Variable,3.5,-,0.02,Snow,Light Snow,0,2013-02-20 01:56:00
6:22 PM,32.0,30.2,93,29.55,1.8,Calm,Calm,-,0.01,Snow,Light Snow,0,2013-02-20 02:22:00
6:35 PM,32.0,30.2,93,29.56,1.2,Calm,Calm,-,0.01,Snow,Light Snow,0,2013-02-20 02:35:00
6:38 PM,32.0,30.2,93,29.56,1.0,Calm,Calm,-,0.02,Snow,Light Snow,0,2013-02-20 02:38:00
6:43 PM,32.0,30.2,93,29.56,0.8,Calm,Calm,-,0.02,Snow,Light Snow,0,2013-02-20 02:43:00
6:56 PM,30.9,30.0,96,29.62,0.5,North,5.8,-,0.05,Fog-Snow,Snow,360,2013-02-20 02:56:00
7:56 PM,28.9,27.0,92,29.61,1.0,NNE,8.1,-,0.06,Snow,Light Snow,30,2013-02-20 03:56:00
8:18 PM,30.2,26.6,86,29.55,1.5,ESE,3.5,-,0.01,Snow,Light Snow,110,2013-02-20 04:18:00
8:37 PM,30.2,26.6,86,29.54,3.0,Calm,Calm,-,0.01,Snow,Light Snow,0,2013-02-20 04:37:00
8:56 PM,30.0,27.0,88,29.58,5.0,ESE,4.6,-,0.01,Snow,Light Snow,120,2013-02-20 04:56:00
9:13 PM,30.2,26.6,86,29.54,2.0,East,8.1,-,0.00,Snow,Light Snow,80,2013-02-20 05:13:00
9:39 PM,30.2,26.6,86,29.53,4.0,East,6.9,-,0.01,Snow,Light Snow,100,2013-02-20 05:39:00
9:56 PM,30.0,27.0,88,29.55,9.0,East,6.9,-,0.01,,Overcast,100,2013-02-20 05:56:00
10:56 PM,30.0,27.0,88,29.55,10.0,South,6.9,-,N/A,,Overcast,170,2013-02-20 06:56:00
11:56 PM,30.0,27.0,88,29.55,10.0,SSW,8.1,-,N/A,,Overcast,200,2013-02-20 07:56:00